Wind_Speed
9 9 8 7 6 5 4 3 3 3 3 3 4 4 5 6 7 7 7 8 9 10 12 14 16 18 20 22 24 25 27 29 30 31 33 34 35 36 38 39 40 42 42 43 44 45 45 45 45
11 10 10 8 7 7 5 4 3 3 3 3 3 4 5 6 7 8 9 11 13 14 16 18 20 22 24 25 27 29 30 32 33 34 36 37 39 40 42 43 44 45 47 48 48 49 50 50 50
12 11 10 8 8 8 6 4 3 3 3 3 3 4 6 7 9 11 13 15 17 18 20 22 23 25 27 28 30 31 33 34 35 37 39 40 42 43 45 46 48 49 50 51 52 53 54 54 54
11 10 9 8 8 6 5 4 3 2 2 3 5 6 8 10 12 15 16 18 20 21 23 24 26 27 28 30 31 33 34 36 38 39 41 43 45 46 48 50 51 53 54 55 56 57 58 59 59
9 8 8 7 5 4 3 3 2 3 4 6 7 10 12 14 16 18 20 21 22 24 25 26 27 28 30 31 33 35 36 38 40 42 44 46 48 50 52 54 55 57 59 60 61 63 64 64 65
6 5 5 5 3 3 3 4 5 6 8 10 11 13 16 18 19 21 22 23 24 25 26 27 28 30 32 34 35 37 39 41 42 45 47 49 51 54 56 59 61 63 65 67 69 70 71 72 72
4 3 4 4 3 4 6 8 9 10 12 14 15 16 19 20 21 22 23 24 25 26 27 28 30 32 34 36 38 40 42 43 46 48 50 53 56 59 62 65 68 70 73 75 77 78 80 80 81
4 4 5 6 7 8 10 12 14 15 16 18 19 19 21 22 22 23 24 24 25 27 28 30 32 34 36 38 40 42 44 46 48 51 54 57 61 64 67 71 74 77 80 82 85 87 88 89 89
7 8 9 10 11 12 14 15 17 18 19 20 20 20 21 22 22 23 24 25 27 28 30 32 34 36 38 40 42 44 46 49 52 55 58 61 65 69 72 76 79 83 86 89 92 94 96 98 98
11 12 13 14 15 15 16 17 18 19 19 19 20 20 20 21 22 23 25 26 28 29 32 34 36 38 40 42 44 46 49 52 55 58 62 65 69 73 76 80 84 87 91 95 98 102 104 106 107
13 14 15 16 16 16 17 17 18 18 17 18 19 19 20 21 23 24 26 27 29 31 33 36 38 40 42 44 46 49 52 55 58 62 65 69 72 76 80 84 88 92 96 101 105 108 110 111 112
14 15 15 15 16 16 16 16 16 16 16 17 17 19 20 22 24 26 27 29 31 33 35 38 40 42 44 47 49 52 55 58 61 65 68 71 75 79 83 88 92 97 102 105 108 109 109 108 107
14 14 14 15 15 15 15 15 15 16 16 17 17 19 21 23 25 27 28 30 32 35 37 39 42 44 46 49 51 54 57 61 64 68 71 74 78 82 87 91 96 101 103 105 104 102 98 95 92
13 13 13 14 14 14 14 15 15 15 16 17 18 20 22 24 25 28 30 32 34 37 39 42 44 46 48 51 53 56 59 63 66 70 73 76 80 85 90 95 99 101 101 98 93 88 84 81 80
13 13 13 13 13 13 14 14 15 15 16 17 18 20 22 24 27 29 31 34 37 39 41 43 46 48 50 52 55 58 62 65 68 71 75 79 83 88 93 97 99 97 92 88 83 80 79 78 78
12 11 11 12 12 13 13 12 14 15 15 17 19 21 24 26 29 31 34 36 39 41 43 45 47 49 52 54 57 60 63 67 70 73 77 81 86 91 95 97 94 90 85 81 79 78 77 77 78
11 11 9 9 12 13 14 13 13 16 16 18 20 23 25 28 31 33 35 38 40 42 44 46 48 51 53 55 58 62 65 68 71 74 78 83 88 92 94 93 88 84 79 77 77 76 77 76 75
10 10 11 10 11 12 14 14 14 16 18 20 22 25 27 29 32 34 37 39 41 43 45 47 49 52 54 56 60 63 66 69 72 76 80 85 89 92 91 87 84 79 76 76 75 75 74 73 73
9 9 10 11 11 12 13 14 15 16 19 21 23 26 28 30 32 35 37 39 41 43 46 48 50 52 55 57 60 64 67 70 73 77 82 86 89 91 88 84 79 76 74 74 73 74 71 70 70
7 8 9 9 11 12 13 14 15 17 20 22 24 27 29 31 33 35 37 40 42 44 46 48 50 53 55 58 61 64 68 71 74 78 83 86 89 88 84 80 76 74 73 72 72 71 70 67 65
5 7 8 8 9 11 13 13 15 17 20 22 25 27 29 32 34 36 38 41 43 45 47 49 51 53 56 59 62 65 68 71 75 79 83 86 87 84 81 77 74 73 72 71 70 69 68 65 60
4 6 7 7 8 9 11 13 15 18 20 23 25 28 30 33 35 38 40 42 44 47 49 51 53 55 57 60 63 66 69 72 75 79 83 85 84 82 78 75 72 72 71 69 68 67 66 63 58
4 5 6 7 8 10 12 13 15 18 20 23 26 28 31 34 37 40 42 44 47 49 52 54 55 57 59 61 64 67 70 72 76 80 82 83 81 79 76 73 71 70 69 68 67 65 63 60 56
6 6 7 8 8 10 13 15 17 19 21 24 26 29 32 35 38 41 44 46 49 52 55 57 59 60 61 63 66 68 70 73 76 79 81 81 79 76 73 71 70 69 68 66 65 64 61 57 52
8 8 9 9 10 11 14 15 17 20 22 25 28 30 33 36 39 42 45 48 51 54 57 59 62 63 64 65 67 69 71 73 76 79 80 80 77 74 71 69 68 67 66 65 64 62 60 56 50
10 11 11 12 12 13 15 16 18 20 23 26 29 32 35 37 40 43 47 50 53 56 59 61 64 65 66 67 69 71 72 73 76 78 79 79 76 72 70 68 67 66 65 63 62 61 59 55 48
13 13 13 14 15 15 17 18 19 22 24 27 30 33 36 39 41 45 48 51 54 57 60 63 65 67 69 69 70 72 72 74 76 78 78 77 74 71 69 67 66 65 64 62 61 60 58 54 47
16 16 16 16 18 19 20 22 25 27 29 31 32 34 36 39 42 46 49 52 55 58 61 64 67 69 70 71 72 73 73 74 75 77 77 75 73 70 68 66 65 64 63 61 60 59 57 53 47
18 19 19 20 21 23 24 24 27 29 31 34 36 37 39 42 44 47 50 53 56 59 62 65 68 70 71 73 73 73 73 74 75 76 76 74 72 69 67 65 65 64 62 60 59 58 56 52 46
22 22 22 23 24 25 28 27 29 31 33 35 37 39 41 43 45 48 51 54 57 60 63 66 68 70 72 73 74 74 74 74 74 75 75 73 71 68 66 65 64 63 62 60 58 57 55 51 46
Wind_Direction
99 103 104 105 103 90 71 58 54 57 52 43 36 27 19 13 11 6 357 348 337 328 320 315 312 310 309 307 305 304 303 301 300 299 298 296 295 294 292 291 289 288 286 285 284 282 280 278 276
97 97 98 101 102 91 86 78 78 73 66 53 40 21 6 359 353 343 335 327 321 316 313 311 310 309 308 307 306 305 304 303 302 300 299 297 296 295 293 291 290 288 286 285 283 281 279 277 275
94 93 94 94 83 81 86 83 82 74 62 43 18 355 341 333 327 323 319 316 313 312 311 311 310 310 309 308 307 306 305 304 302 301 299 298 296 295 294 292 291 289 287 285 283 281 279 277 275
90 90 90 87 79 76 79 76 61 45 20 357 341 327 321 316 313 312 312 312 312 312 311 311 311 311 310 309 308 306 305 303 302 300 299 298 297 296 295 293 291 290 288 286 284 282 279 277 275
85 85 87 84 74 64 58 36 4 341 328 323 320 315 312 310 309 310 311 311 311 311 311 311 311 311 310 309 308 306 305 304 303 302 301 300 299 298 297 295 294 292 290 288 286 284 282 279 276
77 72 73 73 58 23 356 337 324 316 310 309 309 308 307 308 308 309 310 311 311 312 312 312 313 312 311 311 310 308 308 307 306 305 304 303 302 301 300 298 297 295 292 290 288 286 284 281 278
52 30 20 19 349 327 318 315 311 309 305 305 306 306 305 307 309 310 311 312 313 313 314 314 314 313 313 312 311 311 310 309 308 308 307 306 305 304 302 301 299 297 295 293 290 288 285 283 280
350 336 328 325 316 310 307 306 306 306 304 304 305 306 306 308 310 311 312 313 314 314 315 315 315 315 314 313 313 312 311 311 311 310 309 308 307 306 304 302 301 298 296 294 292 289 287 284 281
322 317 313 310 309 305 304 303 304 305 305 305 307 308 308 309 311 312 313 314 315 316 316 316 316 316 315 315 314 314 313 313 313 312 311 309 308 306 304 302 301 298 296 294 292 289 287 284 281
316 312 311 309 308 306 305 305 305 306 307 308 310 311 311 312 313 313 315 316 316 317 317 317 317 317 316 316 316 316 315 315 314 312 311 309 307 306 304 302 301 299 297 294 292 290 288 285 282
315 313 312 311 311 310 309 309 310 311 312 313 313 313 314 314 315 315 317 318 318 318 318 319 319 319 318 318 318 317 316 315 314 312 311 309 307 306 304 303 301 299 297 295 293 290 289 287 284
318 317 316 315 315 314 314 315 315 316 317 317 316 316 316 316 317 318 319 319 319 320 320 320 320 320 320 319 318 317 316 315 313 312 311 309 308 307 306 304 302 300 298 296 294 292 290 288 285
322 322 321 319 318 318 320 320 320 321 321 320 320 318 318 318 319 320 320 321 321 322 322 322 322 321 320 319 318 317 316 315 314 313 312 311 309 308 307 306 304 302 300 298 297 295 292 289 286
326 326 325 324 323 324 325 325 325 325 325 324 323 321 321 321 322 322 322 323 323 323 323 323 322 321 320 319 318 317 316 316 315 314 313 312 311 310 309 308 306 305 304 302 301 299 296 292 288
331 331 331 329 329 329 331 332 331 331 329 327 325 325 325 325 325 325 325 325 325 324 324 323 322 321 321 320 319 318 317 317 316 316 315 314 313 312 311 310 310 309 308 307 305 303 300 297 293
333 335 335 332 334 335 338 343 336 334 334 331 330 329 329 329 329 328 327 326 326 325 324 323 323 322 321 320 320 319 319 319 318 318 317 317 316 315 315 314 314 313 313 311 309 307 305 302 298
333 337 345 344 341 343 345 351 347 338 340 337 335 335 334 333 332 330 329 328 327 326 325 324 324 323 322 322 321 321 321 321 321 320 320 319 319 319 318 318 318 317 316 315 313 311 309 306 303
344 350 354 359 349 351 350 353 358 345 345 343 341 340 338 337 335 333 331 330 329 327 326 325 325 324 324 323 322 322 323 323 323 322 322 322 322 322 322 322 321 321 320 318 317 315 313 311 308
348 352 354 357 357 358 356 356 359 354 350 349 346 344 342 341 340 337 335 333 331 329 328 327 326 326 325 325 325 325 325 325 325 325 324 324 325 325 325 325 325 324 323 322 320 319 318 317 314
344 350 357 2 357 1 1 1 1 360 356 353 351 349 347 345 344 342 339 337 335 333 331 330 329 328 327 327 327 327 327 327 327 327 327 327 328 328 328 328 328 327 326 325 324 324 323 322 320
340 349 357 4 5 4 4 3 1 2 0 358 356 353 351 349 348 347 345 343 341 338 336 334 332 331 330 330 330 330 330 329 329 329 330 330 331 331 331 331 330 330 329 329 329 328 327 327 326
330 342 352 357 0 2 5 6 4 4 3 0 358 356 354 352 350 349 349 347 345 344 341 339 337 335 334 333 332 332 332 332 332 332 332 333 334 334 334 333 333 333 333 332 332 332 331 330 330
310 326 339 346 351 353 358 1 4 3 2 359 357 356 355 353 352 351 350 349 348 347 346 344 342 340 337 336 335 335 335 334 334 335 335 336 336 336 336 336 335 335 335 335 335 335 334 333 332
291 309 323 332 339 339 350 354 356 358 357 357 356 355 354 353 352 351 350 350 349 348 348 347 346 343 341 339 338 337 337 336 336 337 338 339 339 339 338 338 338 338 338 337 338 338 337 336 334
283 295 301 310 325 337 343 345 348 350 351 351 352 352 352 352 351 350 350 349 349 349 348 348 347 346 344 342 341 340 339 338 338 339 340 341 341 341 340 340 340 340 340 340 340 341 340 339 337
277 286 296 309 321 328 332 335 340 343 345 346 347 348 349 349 349 349 349 349 349 349 349 348 348 347 346 344 343 342 341 340 340 341 342 343 343 343 342 342 342 343 343 342 342 343 342 341 339
277 284 293 301 308 314 321 326 332 337 341 342 344 345 346 347 347 347 348 348 348 348 348 349 348 348 347 346 345 343 342 342 342 343 344 344 345 345 344 344 345 345 345 345 345 345 345 344 341
275 282 289 296 302 308 315 323 328 333 336 338 340 341 342 343 345 346 346 347 347 347 347 348 348 348 348 347 346 345 344 343 344 345 345 346 346 346 346 346 347 347 347 347 347 347 347 346 344
275 280 285 292 299 305 311 319 323 327 331 333 335 337 339 341 342 344 345 345 346 346 347 347 348 348 348 348 347 346 345 345 345 346 347 347 348 348 348 348 348 349 349 350 350 350 349 348 346
275 279 284 289 294 300 306 315 317 321 325 327 330 332 335 337 339 341 342 343 344 345 346 347 347 348 348 348 348 347 346 346 347 347 349 349 349 349 349 350 350 350 351 352 352 352 352 351 350
Height
5874 5875 5875 5877 5878 5878 5877 5878 5878 5878 5878 5878 5878 5878 5878 5878 5879 5881 5878 5876 5876 5875 5874 5873 5872 5871 5869 5868 5866 5864 5863 5861 5859 5857 5855 5853 5851 5849 5847 5846 5844 5842 5841 5839 5838 5837 5836 5836 5836
5876 5877 5878 5878 5878 5877 5878 5878 5879 5879 5879 5878 5878 5878 5878 5878 5878 5877 5876 5876 5875 5874 5873 5871 5869 5868 5866 5864 5862 5860 5858 5855 5853 5851 5849 5847 5844 5842 5840 5838 5836 5834 5832 5831 5829 5828 5827 5826 5826
5878 5878 5880 5880 5879 5879 5879 5880 5880 5879 5879 5879 5879 5879 5879 5878 5877 5876 5875 5874 5873 5871 5870 5868 5866 5864 5862 5860 5857 5855 5852 5850 5847 5845 5842 5840 5837 5835 5832 5829 5827 5825 5823 5821 5819 5817 5816 5815 5814
5881 5881 5882 5882 5880 5880 5881 5881 5880 5880 5880 5880 5879 5879 5878 5878 5876 5875 5873 5872 5870 5868 5866 5864 5862 5860 5857 5855 5852 5850 5847 5844 5841 5838 5835 5832 5829 5826 5823 5820 5817 5814 5812 5809 5807 5805 5804 5802 5801
5882 5883 5883 5882 5882 5882 5882 5882 5881 5881 5880 5880 5880 5879 5877 5876 5874 5872 5870 5869 5867 5865 5863 5860 5858 5855 5853 5850 5847 5844 5841 5838 5834 5831 5827 5824 5820 5816 5813 5809 5805 5802 5799 5796 5793 5791 5789 5787 5786
5885 5885 5884 5883 5883 5883 5883 5882 5882 5881 5880 5879 5879 5877 5875 5874 5871 5869 5867 5865 5863 5861 5858 5856 5853 5850 5847 5844 5841 5837 5834 5830 5826 5822 5818 5814 5809 5805 5800 5796 5792 5787 5783 5780 5776 5773 5771 5769 5768
5887 5885 5884 5884 5883 5883 5883 5882 5881 5880 5879 5877 5876 5875 5872 5870 5868 5866 5864 5861 5859 5857 5854 5852 5849 5845 5842 5838 5834 5830 5826 5822 5817 5812 5808 5802 5797 5792 5787 5781 5776 5771 5766 5761 5756 5752 5749 5747 5745
5886 5886 5885 5884 5883 5883 5882 5880 5879 5878 5877 5875 5873 5872 5869 5867 5864 5862 5860 5858 5855 5852 5850 5847 5843 5839 5836 5831 5827 5823 5818 5813 5808 5803 5797 5791 5785 5779 5773 5766 5759 5753 5746 5740 5734 5728 5724 5721 5718
5886 5887 5884 5883 5883 5882 5880 5878 5877 5875 5873 5871 5869 5868 5866 5863 5860 5858 5856 5854 5851 5848 5845 5841 5838 5833 5829 5824 5820 5815 5809 5804 5798 5792 5786 5780 5773 5766 5759 5751 5743 5735 5726 5718 5710 5703 5696 5691 5688
5886 5885 5883 5881 5880 5879 5877 5876 5874 5872 5870 5867 5865 5863 5861 5859 5857 5854 5852 5850 5847 5843 5840 5836 5832 5827 5822 5817 5812 5806 5800 5795 5788 5782 5776 5768 5761 5753 5745 5735 5726 5716 5705 5695 5684 5674 5666 5659 5654
5883 5882 5880 5879 5877 5876 5874 5872 5870 5868 5867 5865 5862 5860 5857 5855 5853 5850 5848 5845 5842 5838 5834 5830 5825 5820 5814 5809 5803 5798 5791 5785 5779 5772 5764 5756 5748 5738 5729 5718 5707 5695 5683 5670 5657 5645 5634 5625 5618
5881 5880 5878 5876 5874 5873 5871 5869 5867 5865 5864 5862 5859 5857 5854 5852 5849 5846 5843 5840 5837 5832 5828 5823 5818 5812 5807 5801 5795 5789 5782 5776 5768 5761 5752 5744 5734 5723 5712 5699 5685 5671 5656 5641 5627 5614 5602 5592 5584
5879 5877 5875 5874 5872 5870 5868 5866 5864 5862 5861 5858 5856 5854 5851 5848 5845 5842 5839 5835 5831 5827 5822 5816 5811 5805 5799 5793 5787 5780 5773 5765 5757 5749 5739 5729 5718 5706 5692 5677 5660 5643 5626 5610 5595 5582 5570 5560 5552
5877 5875 5873 5871 5870 5868 5866 5864 5862 5860 5858 5856 5853 5850 5848 5845 5841 5838 5834 5830 5825 5821 5815 5810 5804 5798 5792 5785 5778 5771 5763 5755 5746 5736 5725 5713 5700 5686 5670 5653 5634 5615 5597 5579 5564 5552 5540 5531 5522
5875 5873 5872 5870 5868 5866 5865 5863 5860 5858 5855 5853 5850 5847 5844 5841 5837 5833 5829 5824 5820 5815 5809 5803 5797 5790 5784 5777 5769 5761 5753 5743 5733 5722 5710 5696 5682 5665 5647 5627 5607 5588 5569 5553 5539 5526 5515 5504 5494
5873 5872 5871 5868 5866 5864 5864 5862 5859 5855 5853 5850 5847 5844 5840 5837 5833 5829 5824 5819 5814 5808 5803 5796 5790 5783 5776 5768 5760 5751 5741 5731 5720 5707 5694 5679 5662 5644 5624 5603 5583 5564 5546 5530 5517 5503 5491 5479 5467
5872 5870 5868 5867 5864 5862 5860 5858 5856 5852 5850 5847 5844 5840 5837 5833 5829 5824 5819 5814 5808 5802 5796 5790 5783 5775 5767 5759 5750 5740 5730 5718 5706 5692 5677 5661 5643 5623 5602 5581 5561 5543 5527 5511 5496 5482 5468 5454 5441
5870 5868 5866 5864 5862 5860 5858 5855 5853 5850 5847 5844 5841 5837 5834 5829 5825 5820 5814 5809 5803 5796 5790 5783 5775 5767 5759 5749 5740 5729 5718 5705 5692 5677 5661 5643 5624 5603 5582 5562 5543 5525 5509 5493 5477 5463 5448 5431 5415
5868 5866 5865 5863 5860 5858 5856 5853 5851 5848 5844 5841 5838 5834 5830 5826 5821 5815 5809 5803 5797 5790 5783 5776 5768 5759 5750 5740 5729 5718 5706 5692 5678 5662 5645 5626 5606 5585 5564 5545 5526 5509 5493 5476 5459 5444 5429 5413 5395
5867 5866 5864 5862 5859 5856 5854 5851 5848 5845 5842 5839 5835 5831 5826 5822 5816 5811 5805 5798 5792 5784 5777 5769 5760 5751 5741 5730 5719 5707 5694 5680 5664 5648 5630 5610 5590 5568 5548 5529 5511 5494 5478 5461 5444 5427 5411 5396 5378
5866 5865 5862 5860 5858 5855 5853 5850 5847 5844 5840 5836 5832 5828 5823 5818 5813 5807 5800 5793 5786 5778 5770 5761 5752 5742 5731 5720 5708 5695 5682 5667 5651 5634 5615 5595 5574 5553 5533 5515 5497 5480 5463 5447 5430 5413 5396 5381 5367
5865 5863 5861 5859 5857 5854 5852 5849 5845 5841 5837 5834 5830 5825 5820 5814 5808 5802 5795 5788 5780 5772 5763 5754 5744 5733 5722 5710 5697 5684 5670 5655 5639 5621 5602 5582 5560 5540 5520 5502 5485 5468 5451 5434 5418 5401 5384 5368 5355
5864 5862 5860 5858 5855 5853 5850 5847 5844 5839 5836 5832 5827 5822 5816 5810 5804 5797 5790 5782 5774 5765 5756 5746 5735 5724 5712 5700 5687 5673 5659 5643 5627 5609 5590 5569 5549 5528 5509 5492 5475 5458 5441 5424 5408 5392 5375 5359 5345
5862 5861 5858 5856 5853 5851 5847 5844 5841 5836 5832 5828 5824 5818 5812 5806 5799 5792 5785 5777 5768 5759 5749 5738 5727 5715 5702 5689 5676 5662 5648 5632 5615 5597 5578 5558 5538 5519 5500 5483 5466 5449 5432 5416 5400 5384 5368 5353 5339
5860 5859 5857 5854 5851 5848 5845 5841 5838 5833 5829 5824 5820 5814 5808 5802 5795 5788 5779 5771 5762 5752 5742 5730 5719 5707 5694 5680 5666 5652 5637 5621 5604 5586 5568 5548 5529 5511 5493 5475 5458 5441 5425 5408 5392 5377 5361 5347 5334
5857 5856 5855 5852 5848 5845 5842 5838 5836 5831 5826 5821 5816 5810 5804 5797 5790 5782 5774 5765 5756 5745 5735 5723 5711 5699 5685 5671 5657 5643 5627 5611 5594 5576 5558 5539 5520 5502 5485 5468 5451 5434 5418 5402 5386 5371 5355 5341 5329
5854 5852 5850 5848 5844 5842 5839 5836 5832 5827 5823 5818 5812 5806 5799 5792 5785 5777 5769 5759 5749 5739 5728 5716 5704 5691 5677 5663 5649 5634 5618 5602 5585 5568 5549 5530 5512 5495 5478 5461 5445 5428 5412 5396 5381 5366 5351 5337 5324
5851 5849 5847 5844 5841 5837 5835 5830 5827 5821 5817 5812 5807 5801 5795 5788 5780 5772 5763 5753 5744 5733 5722 5710 5697 5684 5670 5656 5641 5626 5610 5594 5578 5560 5542 5523 5505 5488 5472 5456 5440 5424 5408 5392 5377 5362 5347 5333 5321
5847 5845 5842 5839 5836 5832 5828 5828 5822 5816 5811 5806 5800 5795 5788 5782 5774 5765 5757 5747 5737 5727 5715 5703 5691 5677 5663 5649 5634 5619 5603 5587 5570 5553 5535 5517 5500 5483 5466 5450 5435 5419 5404 5389 5374 5359 5345 5331 5319
5841 5839 5837 5835 5832 5827 5822 5824 5816 5811 5806 5801 5795 5789 5782 5775 5768 5759 5751 5741 5731 5721 5709 5697 5684 5671 5657 5642 5627 5612 5597 5581 5564 5547 5529 5512 5494 5478 5462 5446 5431 5416 5401 5386 5371 5357 5343 5329 5317